Tillbaka till svenska Fidonet
English   Information   Debug  
FILM   0/18
FNEWS_PUBLISH   4461
FN_SYSOP   41736
FN_SYSOP_OLD1   71952
FTP_FIDO   0/2
FTSC_PUBLIC   0/13627
FUNNY   0/4886
GENEALOGY.EUR   0/71
GET_INFO   105
GOLDED   0/408
HAM   0/16084
HOLYSMOKE   0/6791
HOT_SITES   0/1
HTMLEDIT   0/71
HUB203   466
HUB_100   264
HUB_400   39
HUMOR   0/29
IC   0/2851
INTERNET   0/424
INTERUSER   0/3
IP_CONNECT   719
JAMNNTPD   0/233
JAMTLAND   0/47
KATTY_KORNER   0/41
LAN   0/16
LINUX-USER   0/19
LINUXHELP   0/1155
LINUX   0/22120
LINUX_BBS   0/957
mail   18.68
mail_fore_ok   249
MENSA   0/341
MODERATOR   0/102
MONTE   0/992
MOSCOW_OKLAHOMA   0/1245
MUFFIN   0/783
MUSIC   0/321
N203_STAT   932
N203_SYSCHAT   313
NET203   321
NET204   69
NET_DEV   0/10
NORD.ADMIN   0/101
NORD.CHAT   0/2572
NORD.FIDONET   189
NORD.HARDWARE   0/28
NORD.KULTUR   0/114
NORD.PROG   0/32
NORD.SOFTWARE   0/88
NORD.TEKNIK   0/58
NORD   0/453
OCCULT_CHAT   0/93
OS2BBS   0/787
OS2DOSBBS   0/580
OS2HW   0/42
OS2INET   0/37
OS2LAN   0/134
OS2PROG   0/36
OS2REXX   0/113
OS2USER-L   207
OS2   0/4794
OSDEBATE   0/18996
PASCAL   0/490
PERL   0/457
PHP   0/45
POINTS   0/405
POLITICS   0/29554
POL_INC   0/14731
PSION   103
R20_ADMIN   1124
R20_AMATORRADIO   0/2
R20_BEST_OF_FIDONET   13
R20_CHAT   0/893
R20_DEPP   0/3
R20_DEV   399
R20_ECHO2   1379
R20_ECHOPRES   0/35
R20_ESTAT   0/719
R20_FIDONETPROG...
...RAM.MYPOINT
  0/2
R20_FIDONETPROGRAM   0/22
R20_FIDONET   0/248
R20_FILEFIND   0/24
R20_FILEFOUND   0/22
R20_HIFI   0/3
R20_INFO2   3268
R20_INTERNET   0/12940
R20_INTRESSE   0/60
R20_INTR_KOM   0/99
R20_KANDIDAT.CHAT   42
R20_KANDIDAT   28
R20_KOM_DEV   112
R20_KONTROLL   0/13318
R20_KORSET   0/18
R20_LOKALTRAFIK   0/24
R20_MODERATOR   0/1852
R20_NC   76
R20_NET200   245
R20_NETWORK.OTH...
...ERNETS
  0/13
R20_OPERATIVSYS...
...TEM.LINUX
  0/44
R20_PROGRAMVAROR   0/1
R20_REC2NEC   534
R20_SFOSM   0/341
R20_SF   0/108
R20_SPRAK.ENGLISH   0/1
R20_SQUISH   107
R20_TEST   2
R20_WORST_OF_FIDONET   12
RAR   0/9
RA_MULTI   106
RA_UTIL   0/162
REGCON.EUR   0/2056
REGCON   0/13
SCIENCE   0/1206
SF   0/239
SHAREWARE_SUPPORT   0/5146
SHAREWRE   0/14
SIMPSONS   0/169
STATS_OLD1   0/2539.065
STATS_OLD2   0/2530
STATS_OLD3   0/2395.095
STATS_OLD4   0/1692.25
SURVIVOR   0/495
SYSOPS_CORNER   0/3
SYSOP   0/84
TAGLINES   0/112
TEAMOS2   0/4530
TECH   0/2617
TEST.444   0/105
TRAPDOOR   0/19
TREK   0/755
TUB   0/290
UFO   0/40
UNIX   0/1316
USA_EURLINK   0/102
USR_MODEMS   0/1
VATICAN   0/2740
VIETNAM_VETS   0/14
VIRUS   0/378
VIRUS_INFO   0/201
VISUAL_BASIC   0/473
WHITEHOUSE   0/5187
WIN2000   0/101
WIN32   0/30
WIN95   0/4290
WIN95_OLD1   0/70272
WINDOWS   0/1517
WWB_SYSOP   0/419
WWB_TECH   0/810
ZCC-PUBLIC   0/1
ZEC   4

 
4DOS   0/134
ABORTION   0/7
ALASKA_CHAT   0/506
ALLFIX_FILE   0/1313
ALLFIX_FILE_OLD1   0/7997
ALT_DOS   0/152
AMATEUR_RADIO   0/1039
AMIGASALE   0/14
AMIGA   0/331
AMIGA_INT   0/1
AMIGA_PROG   0/20
AMIGA_SYSOP   0/26
ANIME   0/15
ARGUS   0/924
ASCII_ART   0/340
ASIAN_LINK   0/651
ASTRONOMY   0/417
AUDIO   0/92
AUTOMOBILE_RACING   0/105
BABYLON5   0/17862
BAG   135
BATPOWER   0/361
BBBS.ENGLISH   0/382
BBSLAW   0/109
BBS_ADS   0/5290
BBS_INTERNET   0/507
BIBLE   0/3563
BINKD   0/1119
BINKLEY   0/215
BLUEWAVE   0/2173
CABLE_MODEMS   0/25
CBM   0/46
CDRECORD   0/66
CDROM   0/20
CLASSIC_COMPUTER   0/378
COMICS   0/15
CONSPRCY   0/899
COOKING   33710
COOKING_OLD1   0/24719
COOKING_OLD2   0/40862
COOKING_OLD3   0/37489
COOKING_OLD4   0/35496
COOKING_OLD5   9370
C_ECHO   0/189
C_PLUSPLUS   0/31
DIRTY_DOZEN   0/201
DOORGAMES   0/2065
DOS_INTERNET   0/196
duplikat   6002
ECHOLIST   0/18295
EC_SUPPORT   0/318
ELECTRONICS   0/359
ELEKTRONIK.GER   1534
ENET.LINGUISTIC   0/13
ENET.POLITICS   0/4
ENET.SOFT   0/11701
ENET.SYSOP   33963
ENET.TALKS   0/32
ENGLISH_TUTOR   0/2000
EVOLUTION   0/1335
FDECHO   0/217
FDN_ANNOUNCE   0/7068
FIDONEWS   24191
FIDONEWS_OLD1   0/49742
FIDONEWS_OLD2   0/35949
FIDONEWS_OLD3   0/30874
FIDONEWS_OLD4   0/37224
FIDO_SYSOP   12852
FIDO_UTIL   0/180
FILEFIND   0/209
FILEGATE   0/212
Möte HAM, 16084 texter
 lista första sista föregående nästa
Text 3535, 880 rader
Skriven 2010-03-05 22:00:24 av Amsat List (1:323/120.0)
Ärende: [keps]  orb10064.amsa
=============================
[keps]  orb10064.amsa

Return-Path: <keps-bounces@amsat.org>
X-Rcpt: craig.healy@chowda.com
X-UIDL: 1267843515.10074

SB KEPS @ AMSAT  $ORB10064.O
Orbital Elements  10064.OSCAR

HR AMSAT ORBITAL ELEMENTS FOR OSCAR SATELLITES
FROM WA5QGD FORT WORTH,TX March 5, 2010
Send Subscribe/unsubscribe to KEPS at http://www.amsat.org/mailman/listinfo/kep
BID: ORB10064.O
TO ALL RADIO AMATEURS BT

Satellite: AO-07
Catalog number: 07530
Epoch time:      10064.05552185
Element set:     719
Inclination:      101.4098 deg
RA of node:       083.9414 deg
Eccentricity:    0.0012121
Arg of perigee:   117.9442 deg
Mean anomaly:     242.2857 deg
Mean motion:   12.53577894 rev/day
Decay rate:       -2.7e-07 rev/day^2
Epoch rev:           61540
Checksum:              286

Satellite: FO-29
Catalog number: 24278
Epoch time:      10063.61072676
Element set:     260
Inclination:      098.5206 deg
RA of node:       267.1662 deg
Eccentricity:    0.0351236
Arg of perigee:   035.2258 deg
Mean anomaly:     327.1555 deg
Mean motion:   13.52948889 rev/day
Decay rate:        6.5e-07 rev/day^2
Epoch rev:           66896
Checksum:              334

Satellite: SO-33
Catalog number: 25509
Epoch time:      10062.30031871
Element set:     661
Inclination:      031.4311 deg
RA of node:       027.2919 deg
Eccentricity:    0.0353790
Arg of perigee:   084.1291 deg
Mean anomaly:     279.9583 deg
Mean motion:   14.28292763 rev/day
Decay rate:        3.9e-07 rev/day^2
Epoch rev:           59290
Checksum:              302

Satellite: RS-22
Catalog number: 27939
Epoch time:      10063.57903880
Element set:      24
Inclination:      097.9090 deg
RA of node:       293.4117 deg
Eccentricity:    0.0014297
Arg of perigee:   034.2512 deg
Mean anomaly:     325.9618 deg
Mean motion:   14.63387774 rev/day
Decay rate:       1.47e-06 rev/day^2
Epoch rev:           34365
Checksum:              318

Satellite: VO-52
Catalog number: 28650
Epoch time:      10062.38107644
Element set:     448
Inclination:      097.7049 deg
RA of node:       119.8777 deg
Eccentricity:    0.0025910
Arg of perigee:   262.5814 deg
Mean anomaly:     097.2508 deg
Mean motion:   14.81692347 rev/day
Decay rate:       1.83e-06 rev/day^2
Epoch rev:           26102
Checksum:              316

Satellite: SO-67
Catalog number: 35870
Epoch time:      10063.76346260
Element set:     503
Inclination:      097.3463 deg
RA of node:       115.4636 deg
Eccentricity:    0.0012845
Arg of perigee:   066.2279 deg
Mean anomaly:     044.0006 deg
Mean motion:   15.22918075 rev/day
Decay rate:       7.08e-06 rev/day^2
Epoch rev:            2557
Checksum:              296

Satellite: HO-68
Catalog number: 36122
Epoch time:      10063.12887593
Element set:     147
Inclination:      100.4825 deg
RA of node:       124.5721 deg
Eccentricity:    0.0007169
Arg of perigee:   215.1515 deg
Mean anomaly:     144.9136 deg
Mean motion:   13.16279903 rev/day
Decay rate:       -4.5e-07 rev/day^2
Epoch rev:            1039
Checksum:              281

/EX
SB KEPS @ AMSAT  $ORB10064.D
Orbital Elements  10064.MICROS

HR AMSAT ORBITAL ELEMENTS FOR THE MICROSATS
FROM WA5QGD FORT WORTH,TX March 5, 2010
Send Subscribe/unsubscribe to KEPS at http://www.amsat.org/mailman/listinfo/kep
BID: ORB10064.D
TO ALL RADIO AMATEURS BT

Satellite: UO-11
Catalog number: 14781
Epoch time:      10063.55248666
Element set:     189
Inclination:      098.0686 deg
RA of node:       114.9066 deg
Eccentricity:    0.0008516
Arg of perigee:   210.7500 deg
Mean anomaly:     149.3218 deg
Mean motion:   14.79773055 rev/day
Decay rate:      -1.54e-06 rev/day^2
Epoch rev:           39633
Checksum:              313

Satellite: AO-16
Catalog number: 20439
Epoch time:      10063.36958177
Element set:     837
Inclination:      098.3194 deg
RA of node:       025.4708 deg
Eccentricity:    0.0011871
Arg of perigee:   115.8743 deg
Mean anomaly:     244.3662 deg
Mean motion:   14.31850318 rev/day
Decay rate:        7.0e-08 rev/day^2
Epoch rev:            5038
Checksum:              302

Satellite: LO-19
Catalog number: 20442
Epoch time:      10062.96498891
Element set:     747
Inclination:      098.2802 deg
RA of node:       031.3113 deg
Eccentricity:    0.0012798
Arg of perigee:   112.4884 deg
Mean anomaly:     247.7654 deg
Mean motion:   14.32082706 rev/day
Decay rate:       -3.1e-07 rev/day^2
Epoch rev:            5049
Checksum:              301

Satellite: AO-27
Catalog number: 22825
Epoch time:      10062.86614911
Element set:     470
Inclination:      098.4741 deg
RA of node:       013.6028 deg
Eccentricity:    0.0007821
Arg of perigee:   214.8077 deg
Mean anomaly:     145.2598 deg
Mean motion:   14.29288595 rev/day
Decay rate:        8.2e-07 rev/day^2
Epoch rev:           85700
Checksum:              312

Satellite: IO-26
Catalog number: 22826
Epoch time:      10063.02039991
Element set:     206
Inclination:      098.4679 deg
RA of node:       014.3951 deg
Eccentricity:    0.0008417
Arg of perigee:   209.6162 deg
Mean anomaly:     150.4537 deg
Mean motion:   14.29542557 rev/day
Decay rate:       -1.5e-07 rev/day^2
Epoch rev:           85713
Checksum:              302

Satellite: GO-32
Catalog number: 25397
Epoch time:      10062.71290436
Element set:     126
Inclination:      098.3162 deg
RA of node:       075.9609 deg
Eccentricity:    0.0001229
Arg of perigee:   163.6982 deg
Mean anomaly:     196.4215 deg
Mean motion:   14.23172675 rev/day
Decay rate:        2.7e-07 rev/day^2
Epoch rev:           60504
Checksum:              296

